TimeEST,TemperatureF,Dew PointF,Humidity,Sea Level PressureIn,VisibilityMPH,Wind Direction,Wind SpeedMPH,Gust SpeedMPH,PrecipitationIn,Events,Conditions,WindDirDegrees,DateUTC
12:51 AM,-2.9,-7.1,82,30.41,10.0,Calm,Calm,-,N/A,,Clear,0,2013-02-02 05:51:00
1:51 AM,-4.0,-9.0,79,30.40,7.0,Calm,Calm,-,N/A,,Clear,0,2013-02-02 06:51:00
2:51 AM,-2.9,-8.0,79,30.39,9.0,Calm,Calm,-,N/A,,Clear,0,2013-02-02 07:51:00
3:51 AM,-4.0,-8.0,83,30.39,10.0,Calm,Calm,-,N/A,,Clear,0,2013-02-02 08:51:00
4:51 AM,-2.9,-8.0,79,30.37,10.0,Calm,Calm,-,N/A,,Clear,0,2013-02-02 09:51:00
5:51 AM,-4.0,-9.0,79,30.37,10.0,Calm,Calm,-,N/A,,Clear,0,2013-02-02 10:51:00
6:51 AM,-2.9,-8.0,79,30.36,10.0,Calm,Calm,-,N/A,,Clear,0,2013-02-02 11:51:00
7:51 AM,-2.9,-8.0,79,30.36,9.0,Calm,Calm,-,N/A,,Clear,0,2013-02-02 12:51:00
8:51 AM,1.9,-0.0,91,30.36,8.0,Calm,Calm,-,N/A,,Partly Cloudy,0,2013-02-02 13:51:00
9:51 AM,10.0,5.0,80,30.32,9.0,Calm,Calm,-,N/A,,Scattered Clouds,0,2013-02-02 14:51:00
10:51 AM,18.0,9.0,68,30.28,10.0,Variable,3.5,-,N/A,,Overcast,0,2013-02-02 15:51:00
11:51 AM,23.0,3.9,44,30.22,10.0,South,9.2,-,N/A,,Mostly Cloudy,190,2013-02-02 16:51:00
12:51 PM,25.0,5.0,43,30.19,10.0,WSW,9.2,-,N/A,,Overcast,250,2013-02-02 17:51:00
1:51 PM,25.0,10.0,53,30.15,10.0,Variable,5.8,-,N/A,,Overcast,0,2013-02-02 18:51:00
2:15 PM,24.8,15.8,69,29.99,1.8,SSE,11.5,19.6,0.00,Snow,Light Snow,160,2013-02-02 19:15:00
2:36 PM,23.0,17.6,80,29.98,0.8,South,6.9,-,0.01,Snow,Light Snow,180,2013-02-02 19:36:00
2:51 PM,24.1,19.0,81,30.09,0.8,South,6.9,-,0.01,Snow,Light Snow,170,2013-02-02 19:51:00
3:04 PM,24.8,19.4,80,29.96,0.5,SSE,4.6,-,0.00,Fog-Snow,Snow,160,2013-02-02 20:04:00
3:19 PM,24.8,19.4,80,29.95,1.0,South,6.9,-,0.01,Snow,Light Snow,170,2013-02-02 20:19:00
3:35 PM,24.8,19.4,80,29.95,0.8,Variable,4.6,-,0.01,Snow,Light Snow,0,2013-02-02 20:35:00
3:51 PM,25.0,21.0,85,30.08,0.8,SSE,4.6,-,0.02,Snow,Light Snow,150,2013-02-02 20:51:00
4:04 PM,24.8,21.2,86,29.94,1.5,Calm,Calm,-,0.00,Snow,Light Snow,0,2013-02-02 21:04:00
4:23 PM,24.8,21.2,86,29.94,2.0,SSE,3.5,-,0.01,Snow,Light Snow,150,2013-02-02 21:23:00
4:33 PM,24.8,21.2,86,29.94,1.5,Calm,Calm,-,0.01,Snow,Light Snow,0,2013-02-02 21:33:00
4:44 PM,24.8,21.2,86,29.94,1.0,Calm,Calm,-,0.01,Snow,Light Snow,0,2013-02-02 21:44:00
4:51 PM,26.1,21.9,84,30.07,1.2,Calm,Calm,-,0.01,Snow,Light Snow,0,2013-02-02 21:51:00
5:48 PM,26.6,23.0,86,29.94,0.8,Calm,Calm,-,0.02,Snow,Light Snow,0,2013-02-02 22:48:00
5:51 PM,27.0,24.1,89,30.07,1.0,Calm,Calm,-,0.02,Snow,Light Snow,0,2013-02-02 22:51:00
6:35 PM,26.6,24.8,93,29.94,0.8,Calm,Calm,-,0.02,Snow,Light Snow,0,2013-02-02 23:35:00
6:49 PM,26.6,23.0,86,29.94,1.2,Calm,Calm,-,0.03,Snow,Light Snow,0,2013-02-02 23:49:00
6:51 PM,27.0,23.0,85,30.07,1.2,Calm,Calm,-,0.03,Snow,Light Snow,0,2013-02-02 23:51:00
7:16 PM,26.6,24.8,93,29.94,1.2,Calm,Calm,-,N/A,Snow,Light Snow,0,2013-02-03 00:16:00
7:46 PM,26.6,24.8,93,29.95,1.2,Variable,4.6,-,0.02,Snow,Light Snow,0,2013-02-03 00:46:00
7:51 PM,26.6,21.2,80,29.95,1.8,Variable,5.8,-,N/A,Snow,Light Snow,0,2013-02-03 00:51:00
8:51 PM,26.1,23.0,88,30.07,1.2,Calm,Calm,-,0.02,Snow,Light Snow,0,2013-02-03 01:51:00
9:38 PM,26.6,21.2,80,29.94,2.5,South,4.6,-,0.01,Snow,Light Snow,180,2013-02-03 02:38:00
9:51 PM,26.1,21.0,81,30.05,2.5,WSW,6.9,-,0.02,Snow,Light Snow,240,2013-02-03 02:51:00
10:01 PM,26.6,21.2,80,29.94,1.8,Calm,Calm,-,0.00,Snow,Light Snow,0,2013-02-03 03:01:00
10:08 PM,26.6,21.2,80,29.94,3.0,Calm,Calm,-,0.00,Snow,Light Snow,0,2013-02-03 03:08:00
10:44 PM,26.6,21.2,80,29.93,2.0,Calm,Calm,-,0.00,Snow,Light Snow,0,2013-02-03 03:44:00
10:51 PM,26.1,21.0,81,30.03,1.2,Calm,Calm,-,0.01,Snow,Light Snow,0,2013-02-03 03:51:00
11:51 PM,25.0,21.9,88,30.01,2.5,Calm,Calm,-,0.01,Snow,Light Snow,0,2013-02-03 04:51:00